Погода в Овидиополе

Украина / Одесская область     46°15′07″N   30°25′39″E
темп.,
°C
ветер,
м/с
пор.,
м/с
влажн.,
%
обл.,
%
осадки,
мм/ч
давл.,
гПа
погр.,
м
5 марта, пт
пт523:00+7юз6107929 0.0 1013164
02:00+6юз568040 0.0 101291
05:00+5з238070 0.0 101222
08:00+6ссв467835 0.0 1011165
11:00+8всв466974 0.0 1012278
14:00+9вюв226879 0.0 1011275
17:00+8юв3370100 0.0 101090
20:00+7ю467294 0.0 101291
6 марта, сб
сб623:00+9з8135878 0.0 1013250
02:00+6ссз8138184 0.0 1016542
05:00+3с91278100 0.0 1018764
08:00+2с81270100 0.0 1022795
11:00+4с7947100 0.0 10241096
14:00+4ссз7846100 0.0 10251319
17:00+4с684133 0.0 10261261
20:00+2ссв344517 0.0 1028188
7 марта, вс
вс723:00+1зюз22460 0.0 103040
02:00+1з47550 0.0 1030210
05:000сз47640 0.0 1029262
08:00+1зсз46510 0.0 1029522
11:00+4з57420 0.0 10271034
14:00+5зюз58470 0.0 10251028
17:00+5юз68500 0.0 1022959
20:00+4юз612540 0.0 1021299
8 марта, пн
пн823:00+3юз712687 0.0 1020321
02:00+2юз597335 0.0 1019229
05:00+1зюз597739 0.0 1018227
08:00+2з457520 0.0 1018196
11:00+5юз11560 0.0 1017425
14:00+6ю335643 0.0 1016471
17:00+5ю4563100 0.0 1015179
20:00+4ююз347683 0.0 101560
9 марта, вт
вт923:00+4юз33730 0.0 101527
02:00+3сз22740 0.0 101523
05:00+2с59710 0.0 1016201
08:00+2с79770 0.0 1018466
11:00+4с685014 0.0 1019822
14:00+5с67467 0.0 1019977
17:00+4с56440 0.0 10191046
20:00+2ссв69560 0.0 1022552